SES-3

Last updated on Sat Sep 12 2026 00:03:01 GMT+0000 (Coordinated Universal Time)

1 37748U 11035A 26254.61864586 -.00000118 00000+0 00000+0 0 9991 2 37748 1.5441 81.9906 0002412 104.1080 284.2528 1.00273669 55467
UTC large
Height (km)
Speed (km/s)
/
Latitude / Longitude
Inclination (degrees)
Orbital Period (minutes)
Azimuth
Elevation
Range (km)
Doppler Factor

Next 0 passes for location: London (51.5072 / 0.1276)

No passes found over London.
SES-3